Find Starlink 32108

NORAD ID: 59682 Int'l Des: 2024-086 Owner: SPXS Country: US Constellation: starlink operational
LEOCIRCULAR

現在のビュー

3D地球を読み込み中...

About Starlink 32108

Starlink 32108 (NORAD 59682) is a starlink constellation satellite (v2 mini) launched May 8, 2024 by SPXS of US. It operates in LEO, CIRCULAR orbit with a mass of 730.00 kg.

次回通過

Passes for default location (London). Set your location on the main map for personalized predictions.

高度履歴

Loading altitude history...

軌道要素

1 59682U 24086A 26228.32153955 -.00000465 00000-0 -73704-5 0 9996
2 59682 43.0002 241.9882 0001222 264.0883 95.9829 15.27574704128479
Epoch: Aug 16, 2026 • Age: 11 hours

現在のステータス

高度 486.1 km
遠地点 / 近地点 N/A
速度 7.63 km/s
衛星直下点 38.97°N, 48.88°E
打ち上げ日 May 8, 2024
運用期間 2.2 years
タイプ internet

技術仕様

分類 Payload
質量 730.00 kg
乾燥質量 700.00 kg
総質量 730.00 kg
長さ 0.30 m
直径 4.10 m
スパン 29.00 m
形状 Box + pan
製造者 SPXS
バスタイプ Starlink V2M
フェーズステータス In Orbit
所有者/国 SPXS/US

Most Searched